TimeCST,TemperatureF,Dew PointF,Humidity,Sea Level PressureIn,VisibilityMPH,Wind Direction,Wind SpeedMPH,Gust SpeedMPH,PrecipitationIn,Events,Conditions,WindDirDegrees,DateUTC
12:53 AM,37.9,36.0,93,30.14,10.0,NE,4.6,-,N/A,,Clear,50,2013-01-23 06:53:00
1:53 AM,39.9,39.0,97,30.14,4.0,ESE,6.9,-,N/A,,Clear,120,2013-01-23 07:53:00
2:19 AM,39.2,39.2,100,30.18,2.0,ESE,3.5,-,N/A,,Clear,110,2013-01-23 08:19:00
2:25 AM,39.2,39.2,100,30.18,0.8,ESE,4.6,-,N/A,,Clear,120,2013-01-23 08:25:00
2:49 AM,41.0,41.0,100,30.18,0.5,SE,6.9,-,N/A,Fog,Fog,130,2013-01-23 08:49:00
2:53 AM,41.0,41.0,100,30.13,0.2,SE,6.9,-,N/A,Fog,Fog,130,2013-01-23 08:53:00
3:53 AM,37.0,37.0,100,30.13,0.2,Calm,Calm,-,N/A,Fog,Fog,0,2013-01-23 09:53:00
4:15 AM,35.6,35.6,100,30.18,0.5,Calm,Calm,-,N/A,Fog,Fog,0,2013-01-23 10:15:00
4:27 AM,32.0,32.0,100,30.19,0.2,North,3.5,-,N/A,Fog,Fog,360,2013-01-23 10:27:00
4:53 AM,33.1,33.1,100,30.15,0.5,North,4.6,-,N/A,Fog,Fog,350,2013-01-23 10:53:00
5:07 AM,33.8,33.8,100,30.20,0.2,North,4.6,-,N/A,Fog,Fog,360,2013-01-23 11:07:00
5:53 AM,32.0,30.9,96,30.17,0.2,Calm,Calm,-,N/A,Fog,Fog,0,2013-01-23 11:53:00
6:09 AM,32.0,30.2,93,30.20,0.8,NNW,3.5,-,N/A,,Mist,340,2013-01-23 12:09:00
6:17 AM,30.2,30.2,100,30.21,1.5,NNW,4.6,-,N/A,,Overcast,330,2013-01-23 12:17:00
6:30 AM,30.2,30.2,100,30.21,0.2,NNW,4.6,-,N/A,Fog,Light Freezing Fog,330,2013-01-23 12:30:00
6:53 AM,32.0,32.0,100,30.20,0.2,North,4.6,-,N/A,Fog,Fog,350,2013-01-23 12:53:00
7:25 AM,30.2,30.2,100,30.24,0.5,North,5.8,-,N/A,Fog,Light Freezing Fog,10,2013-01-23 13:25:00
7:53 AM,30.9,30.9,100,30.23,0.5,North,4.6,-,N/A,Fog,Light Freezing Fog,10,2013-01-23 13:53:00
8:03 AM,30.2,30.2,100,30.24,0.2,North,4.6,-,N/A,Fog,Light Freezing Fog,10,2013-01-23 14:03:00
8:53 AM,32.0,32.0,100,30.25,0.2,NNW,4.6,-,N/A,Fog,Fog,330,2013-01-23 14:53:00
9:22 AM,35.6,35.6,100,30.27,1.0,North,5.8,-,N/A,,Mostly Cloudy,360,2013-01-23 15:22:00
9:28 AM,35.6,35.6,100,30.27,5.0,North,3.5,-,N/A,,Scattered Clouds,350,2013-01-23 15:28:00
9:53 AM,37.9,37.9,100,30.25,10.0,Calm,Calm,-,N/A,,Clear,0,2013-01-23 15:53:00
10:53 AM,48.0,39.9,74,30.26,10.0,Calm,Calm,-,N/A,,Clear,0,2013-01-23 16:53:00
11:53 AM,57.9,35.1,42,30.24,10.0,Calm,Calm,-,N/A,,Clear,0,2013-01-23 17:53:00
12:53 PM,66.0,25.0,21,30.19,10.0,West,9.2,-,N/A,,Clear,260,2013-01-23 18:53:00
1:53 PM,71.1,17.1,13,30.15,10.0,West,10.4,-,N/A,,Clear,270,2013-01-23 19:53:00
2:53 PM,75.0,21.9,14,30.11,10.0,SW,10.4,-,N/A,,Clear,220,2013-01-23 20:53:00
3:53 PM,75.0,24.1,15,30.10,10.0,SSW,9.2,-,N/A,,Clear,210,2013-01-23 21:53:00
4:53 PM,75.9,23.0,14,30.10,10.0,WSW,10.4,-,N/A,,Clear,240,2013-01-23 22:53:00
5:53 PM,73.0,17.1,12,30.11,10.0,WSW,11.5,-,N/A,,Clear,240,2013-01-23 23:53:00
6:53 PM,63.0,19.0,18,30.13,10.0,SW,6.9,-,N/A,,Clear,230,2013-01-24 00:53:00
7:53 PM,55.0,21.9,28,30.15,10.0,SW,8.1,-,N/A,,Clear,230,2013-01-24 01:53:00
8:53 PM,55.0,24.1,30,30.15,10.0,WSW,8.1,-,N/A,,Clear,240,2013-01-24 02:53:00
9:53 PM,51.1,26.1,38,30.16,10.0,SW,8.1,-,N/A,,Clear,220,2013-01-24 03:53:00
10:53 PM,48.0,26.1,42,30.15,10.0,SSE,3.5,-,N/A,,Clear,150,2013-01-24 04:53:00
11:53 PM,46.0,28.9,51,30.15,10.0,South,8.1,-,N/A,,Clear,180,2013-01-24 05:53:00